AirNav   Air Wisconsin Up To $57,000 Bonus
 
 624 users online  

I83 Salem Municipal Airport
Salem, Indiana, USA

GOING TO SALEM?


FAA INFORMATION EFFECTIVE 21 APRIL 2022

Location

FAA Identifier: I83
Lat/Long: 38-36-14.6725N 086-09-08.1058W
38-36.244542N 086-09.135097W
38.6040757,-86.1522516
(estimated)
Elevation: 839.9 ft. / 256 m (estimated)
Variation: 04W (2015)
From city: 2 miles W of SALEM, IN
Time zone: UTC -4 (UTC -5 during Standard Time)
Zip code: 47167

Airport Operations

Airport use: Open to the public
Control tower: no
ARTCC: INDIANAPOLIS CENTER
FSS: TERRE HAUTE FLIGHT SERVICE STATION
NOTAMs facility: HUF (NOTAM-D service available)
Attendance: IREG
Wind indicator: lighted
Segmented circle: no
Lights: ACTVT PAPI RWY 08; MIRL RWY 08/26 - CTAF. MIRL RWY 08/26 PRESET LOW INTST TO INCR INTST - CTAF.

Airport Communications

CTAF/UNICOM: 123.0
WX AWOS-3 at BFR (20 nm NW): 119.125 (812-275-8306)
  • UNICOM NOT RGRLY MNTRD.

Nearby radio navigation aids

VOR radial/distance  VOR name  Freq  Var
OOMr148/38.9HOOSIER VORTAC110.2002W

 
NDB name  Hdg/Dist  Freq  Var  ID
GODMAN351/39.639603WGOI --. --- ..

Airport Services

Fuel available: 100LL
100LL:FUEL AVBL H24 WITH CREDIT CARD.
Parking: buoy and tiedowns
Airframe service: NONE
Powerplant service: NONE

Runway Information

Runway 8/26

Dimensions: 3000 x 75 ft. / 914 x 23 m
Surface: asphalt, in good condition
Weight bearing capacity: 
Single wheel: 30.0
Double wheel: 60.0
Runway edge lights: medium intensity
RUNWAY 8  RUNWAY 26
Latitude: 38-36.191155N38-36.297912N
Longitude: 086-09.442703W086-08.827420W
Elevation: 839.9 ft.816.4 ft.
Traffic pattern: leftleft
Markings: nonprecision, in good conditionnonprecision, in good condition
Visual slope indicator: 2-light PAPI on left (3.00 degrees glide path)
Runway end identifier lights: yesyes

Airport Ownership and Management from official FAA records

Ownership: Publicly-owned
Owner: SALEM BOARD OF AVN CMSNRS
334 N AIRPORT BLVD
SALEM, IN 47167
Phone (812) 883-5858
Manager: LOWELL DEPOY
334 N AIRPORT BLVD
SALEM, IN 47167
Phone (812) 896-4775

Airport Operational Statistics

Aircraft based on the field: 14
Single engine airplanes: 9
Multi engine airplanes: 1
Helicopters: 2
Ultralights: 2
    
Aircraft operations: avg 105/week *
73% local general aviation
27% transient general aviation
* for 12-month period ending 31 December 2018

Additional Remarks

FOR CD CTC LOUISVILLE APCH AT 502-375-7499

Instrument Procedures

There are no published instrument procedures at I83.

Some nearby airports with instrument procedures:

KBFR - Virgil I Grissom Municipal Airport (20 nm NW)
KSER - Freeman Municipal Airport (22 nm NE)
KFRH - French Lick Municipal Airport (23 nm W)
KJVY - Clark Regional Airport (24 nm SE)
KLOU - Bowman Field Airport (32 nm SE)
 
Loc | Ops | Rwys | IFR | FBO | Links
Com | Nav | Svcs | Stats | Notes
Area around I83 (Salem Municipal Airport)
 
Road maps at: MapQuest Bing Google
 
Aerial photo
WARNING: Photo may not be current or correct
Aerial photo of I83 (Salem Municipal Airport)
Photo by Phil Brooks
Photo taken 12-Sep-2019
looking west.

Do you have a better or more recent aerial photo of Salem Municipal Airport that you would like to share? If so, please send us your photo.

 
Sectional chart

 
Airport distance calculator
Flying to Salem Municipal Airport? Find the distance to fly.

From to I83

Sunrise and sunset
Times for 17-May-2022
 Local
(UTC-4)
 Zulu
(UTC)
Morning civil twilight06:0210:02
Sunrise06:3210:32
Sunset20:5000:50
Evening civil twilight21:2001:20

Current date and time
Zulu (UTC)  17-May-2022 05:56:44
Local (UTC-4)  17-May-2022 01:56:44
 
METAR
KFRH 
23nm W 
170535Z AUTO 00000KT 10SM CLR 15/08 A2996 RMK AO1
KJVY 
24nm SE 
170535Z AUTO 00000KT 10SM CLR 12/11 A2995 RMK AO2
KSDF 
32nm SE 
170456Z 22006KT 10SM CLR 19/08 A2996 RMK AO2 SLP140 T01940083 402670167
KLOU 
33nm SE 
170453Z AUTO 00000KT 10SM CLR 17/10 A2996 RMK AO2 SLP140 T01670100 402610161
KIMS 
34nm E 
170535Z AUTO 00000KT 10SM CLR 13/10 A2997 RMK AO2
KBMG 
39nm NW 
170453Z AUTO 00000KT 10SM CLR 14/09 A2994 RMK AO2 SLP134 T01390089 402560128
KBAK 
41nm N 
170045Z 24004KT 10SM CLR 19/09 A2991
KHNB 
43nm SW 
170456Z AUTO 18003KT 10SM 16/12 A2997 RMK AO2 SLP145 T01610117 402500133
KFTK 
44nm S 
170456Z AUTO 00000KT 10SM CLR 14/12 A2997 RMK AO2 SLP148 T01350117 402430129 $
KDCY 
46nm W 
170535Z AUTO 25008KT 10SM CLR 17/09 A2995 RMK AO2 T01700088
TAF
KSDF 
32nm SE 
161722Z 1618/1724 29010KT P6SM FEW050 FM170000 26004KT P6SM SKC FM171300 28005KT P6SM SKC
KBMG 
39nm NW 
162016Z 1620/1718 29012G20KT P6SM SCT050 FM170000 29005KT P6SM FEW250 FM171400 27007KT P6SM SCT080
NOTAMs
Click for the latest NOTAMs
NOTAMs are issued by the DoD/FAA and will open in a separate window not controlled by AirNav.

 

 
 

FBO, Fuel Providers, and Aircraft Ground Support

  
 Business Name 
 
 Contact 
 
 Services / Description 
 
Fuel Prices
 
Comments
  
Salem Municipal Airport 812-883-4265
812-883-4264
[web site]
[email]
Aviation fuel, Hangar leasing / sales, Public telephone, Internet access, Restrooms

More info about Salem Municipal Airport
independent
100LL
SS $5.18 
 Updated 05-May-2022
 
   write
SS=Self service
Update Fuel Prices
 

Would you like to see your business listed on this page?

 If your business provides an interesting product or service to pilots, flight crews, aircraft, or users of the Salem Municipal Airport, you should consider listing it here.  To start the listing process, click on the button below
 
Add a business
 

Other Pages about Salem Municipal Airport

cityofsalemin.com/...
 
Update a link
 
Copyright © AirNav, LLC. All rights reserved. Privacy Policy  Contact